User: anonymous   Login
Location: Caltech
(34.1382°N, 118.1253°W)
Time: 15:35:45
(UTC-07:00)
Language:

IRS-1A Rocket - Orbit

View from above orbital plane
View from above orbital plane
View from above satellite
View from above satellite

Ground track
Ground track

The orbit data is extracted from the following two-line orbital elements,

1 18961U 88021B   16211.91867949 +.00000078 +00000-0 +82472-4 0  9990
2 18961 099.2900 207.7298 0055442 029.8774 025.3282 14.00511804450306
Epoch (UTC): 29 July 2016 22:02:53
Eccentricity: 0.0055442
inclination: 99.2900°
perigee height: 852 km
apogee height: 932 km
right ascension of ascending node: 207.7298°
argument of perigee: 29.8774°
revolutions per day: 14.00511804
mean anomaly at epoch: 25.3282°
orbit number at epoch: 45030

The dashed part of the orbit path shows where the satellite is in the earth's shadow,  

DLR